Regional Weather Roundup
Issued by NWS Albany, NY

Home | Current Version | Previous Version | Text Only | Print | Product List | Glossary On
Versions: 1 2 3 4 5 6 7 8 9 10 11 12 13 14 15 16 17 18 19 20 21 22 23 24 25 26 27 28 29 30 31 32 33 34 35 36 37 38 39 40 41 42 43 44 45 46 47 48 49 50
000
ASUS41 KALY 290510
RWRALY

NEW YORK STATE HOURLY WEATHER ROUNDUP
NATIONAL WEATHER SERVICE ALBANY NY
100 AM EDT FRI MAY 29 2015

NOTE: "FAIR" INDICATES FEW OR NO CLOUDS BELOW 12,000 FEET WITH NO
SIGNIFICANT WEATHER AND/OR NO OBSTRUCTIONS TO VISIBILITY.

NYZ032-033-038>043-046>054-057>066-NYZ062>081-290600-
EAST


CITY           SKY/WX    TMP DP  RH WIND       PRES   REMARKS
ALBANY         PTCLDY    61  53  75 N5        30.28S
GLENS FALLS    PTCLDY    59  53  80 CALM      30.27S
POUGHKEEPSIE   CLEAR     60  54  80 CALM      30.25S
NEWBURGH       CLEAR     61  55  82 CALM      30.27S
MONTGOMERY     LGT RAIN  56  54  93 CALM      30.27R
WHITE PLAINS   PTCLDY    64  54  69 N6        30.25S
ISLIP          PTCLDY    67  54  63 N9        30.22S
NEW YORK CITY  PTCLDY    69  54  58 NE9       30.24R
CENTRAL PARK   PTCLDY    72  52  49 NE9G20    30.28R
$$

NYZ005>009-017-018-044>046-055-056-290600-
CENTRAL


CITY           SKY/WX    TMP DP  RH WIND       PRES   REMARKS
FULTON         CLEAR     56  53  90 SE3       30.29R
SYRACUSE       CLEAR     58  54  86 E5        30.28S
ROME           CLEAR     56  53  90 SE7       30.31R
ELMIRA         CLEAR     53  51  93 CALM      30.30S
BINGHAMTON     CLEAR     60  52  74 E3        30.32R
MONTICELLO     CLEAR     55  52  88 N6        30.30F
$$

NYZ026>034-041>043-290600-
NORTH


CITY           SKY/WX    TMP DP  RH WIND       PRES   REMARKS
WATERTOWN      CLEAR     54  51  90 CALM      30.26F
FORT DRUM      NOT AVBL
MASSENA        CLEAR     50  48  93 CALM      30.30R
SARANAC LAKE   FOG       48  48 100 CALM      30.29F VSB<1/4
PLATTSBURGH    CLOUDY    61  57  87 NW3       30.28R
$$

NYZ001>004-010>016-019>021-290600-
WEST


CITY           SKY/WX    TMP DP  RH WIND       PRES   REMARKS
NIAGARA FALLS  CLEAR     58  53  84 CALM      30.26F
BUFFALO        CLEAR     62  55  77 SE6       30.27F
DUNKIRK        CLEAR     56  53  90 E3        30.25F
JAMESTOWN      CLEAR     61  48  63 E6        30.29F
WELLSVILLE     CLEAR     57  52  83 SE3       30.33F
ROCHESTER      PTCLDY    60  56  86 CALM      30.28S
PENN YAN       CLEAR     59  54  83 SW7       30.30S
$$

             KEY
       WCI = WIND CHILL INDEX
       VSB = VISIBILITY
       HX  = HEAT INDEX
$$



USA.gov is the U.S. government's official web portal to all federal, state and local government web resources and services.